Weather in Maysky

Russia / Perm Krai     58°06′16″N   55°34′23″E
temp.,
°C
wind,
m/s
gust,
m/s
humid.,
%
clouds,
%
prec.,
mm/h
press.,
hPa
HPBL,
m
26 february, fri
fri2623:00−25sse22966 0.0 102823
02:00−27se129510 0.0 102619
05:00−28se129411 0.0 102719
08:00−28se129530 0.0 102619
11:00−23se248825 0.0 1025280
14:00−17sse368760 0.0 1024526
17:00−15sse378781 0.0 1022647
20:00−19se2895100 0.0 1020203
27 february, sat
sat2723:00−20se389580 0.0 1018228
02:00−19ese3109330 0.0 1015302
05:00−19ese4109165 0.0 1013342
08:00−19ese41192100 0.0 1010379
11:00−17e51088100 0.0 1009382
14:00−14e5992100 0.2 1007517
17:00−14e5991100 0.5 1007620
20:00−15e51191100 0.2 1008584
28 february, sun
sun2823:00−18e41090100 0.2 1009500
02:00−20ene41094100 0.0 1009366
05:00−21ne499495 0.0 1010319
08:00−21ne499584 0.0 1009334
11:00−19ene499191 0.0 1010441
14:00−15ene4888100 0.0 1010590
17:00−13ene4888100 0.1 1011688
20:00−16ne3995100 0.1 1013318
1 march, mon
mon123:00−20ene389576 0.1 1016178
02:00−23ne24950 0.0 101771
05:00−25ne22940 0.0 101930
08:00−26ne11940 0.0 102020
11:00−19ne11850 0.0 1021201
14:00−14w11800 0.0 1020366
17:00−13wsw238411 0.0 1019435
20:00−18ssw239413 0.0 101839
2 march, tue
tue223:00−19ssw37956 0.0 1017140
02:00−18ssw4109571 0.0 1014320
05:00−17ssw5119386 0.0 1011401
08:00−16ssw51295100 0.2 1008471
11:00−15ssw51093100 1.1 1006516
14:00−13ssw5991100 0.5 1005545
17:00−12ssw4990100 0.9 1003553
20:00−12ssw499499 0.2 1002416